User: anonymous   Login
Location: Brno
(49.2000°N, 16.6330°E)
Time: 19:45:47
(UTC+02:00)
Language:

CARTOSAT-1 - Orbit

View from above orbital plane
View from above orbital plane
View from above satellite
View from above satellite

Ground track
Ground track

The orbit data is extracted from the following two-line orbital elements,

1 28649U 05017A   16182.12380210 -.00000715  00000-0 -80719-4 0  9991
2 28649  97.8978 255.2566 0003354  98.8190 261.3341 14.83426938603782
Epoch (UTC): 30 June 2016 02:58:16
Eccentricity: 0.0003354
inclination: 97.8978°
perigee height: 616 km
apogee height: 621 km
right ascension of ascending node: 255.2566°
argument of perigee: 98.8190°
revolutions per day: 14.83426938
mean anomaly at epoch: 261.3341°
orbit number at epoch: 60378

The dashed part of the orbit path shows where the satellite is in the earth's shadow,  

DLR